Flag for Finland Weather past 2 weeks in Jyväskylä, Finland

Now
50 °F

Sunny.


Feels Like: 48 °F
Forecast: 41 / 59 °F
Wind: 6 mph from Northeast

Location: Jyvaskyla Airport


UV Index: 0 (Low)

Visibility: 10 mi


Pressure: 30.30 "Hg

Humidity: 62%

Dew point: 37 °F

Location of JyväskyläLocation

Historic Weather in Jyväskylä

°F

Jyväskylä temperature yesterday

Maximum temperature yesterday: 55 °F (at 4:20 PM)
Minimum temperature yesterday: 34 °F (at 2:20 AM)
Average temperature yesterday: 45 °F

Past Weeks' High & Low Weather Summary

 TemperatureHumidityPressure
High55 °F (Apr 19, 4:20 PM)100% (Apr 6, 4:50 AM)30.30 "Hg (Apr 6, 4:50 AM)
Low14 °F (Apr 10, 6:20 AM)27% (Apr 16, 1:50 PM)29.24 "Hg (Apr 14, 4:50 AM)
Average38 °F69%29.85 "Hg
* Reported Apr 5 10:20 AM — Apr 20 10:20 AM, Jyväskylä, Weather by CustomWeather, © 2014

Note: Actual official high and low records may vary slightly from our data, if they occured in-between our weather recording intervals... More about our weather records

Advertising

Historic Weather Conditions — Data for Previous 24 hours

 ConditionsComfort  
Time TempWeatherWind HumidityBarometerVisibility
10:20 AM
Apr 20
46 °FSunny.7 mph71%30.27 "Hg10 mi
9:50 AM46 °FSunny.6 mph71%30.27 "Hg10 mi
9:20 AM45 °FSunny.7 mph76%30.27 "Hg10 mi
8:50 AM45 °FSunny.8 mph76%30.27 "Hg10 mi
8:20 AM43 °FSunny.7 mph81%30.24 "Hg10 mi
7:50 AM41 °FSunny.5 mph87%30.24 "Hg10 mi
7:20 AM41 °FSunny.7 mph87%30.24 "Hg10 mi
6:50 AM39 °FSunny.2 mph93%30.21 "Hg10 mi
6:20 AM39 °FPassing clouds.5 mph87%30.21 "HgN/A
5:50 AM39 °FClear.6 mph87%30.21 "Hg10 mi
5:20 AM39 °FClear.2 mph87%30.21 "Hg10 mi
4:50 AM39 °FClear.2 mph87%30.21 "Hg10 mi
4:20 AM41 °FPassing clouds.6 mph87%30.18 "HgN/A
3:50 AM41 °FPassing clouds.7 mph87%30.18 "HgN/A
3:20 AM41 °FPassing clouds.8 mph81%30.18 "HgN/A
2:50 AM41 °FPassing clouds.5 mph81%30.18 "HgN/A
2:20 AM41 °FPassing clouds.3 mph81%30.18 "HgN/A
1:50 AM41 °FPassing clouds.5 mph81%30.18 "HgN/A
1:20 AM43 °FPassing clouds.5 mph76%30.18 "HgN/A
12:50 AM43 °FPassing clouds.5 mph76%30.18 "HgN/A
12:20 AM45 °FPassing clouds.5 mph71%30.18 "HgN/A
11:50 PM
Apr 19
45 °FPassing clouds.5 mph71%30.18 "HgN/A
11:20 PM46 °FPassing clouds.5 mph66%30.18 "HgN/A
10:50 PM46 °FClear.3 mph71%30.18 "Hg10 mi
10:20 PM46 °FClear.3 mph71%30.18 "Hg10 mi
9:50 PM46 °FSunny.3 mph71%30.18 "Hg10 mi
9:20 PM48 °FPassing clouds.5 mph66%30.15 "HgN/A
8:50 PM50 °FPassing clouds.5 mph62%30.15 "HgN/A
8:20 PM50 °FPassing clouds.6 mph62%30.15 "HgN/A
7:50 PM50 °FPassing clouds.5 mph62%30.15 "HgN/A
7:20 PM52 °FPassing clouds.6 mph58%30.18 "HgN/A
6:50 PM52 °FPassing clouds.9 mph54%30.18 "HgN/A
6:20 PM54 °FPassing clouds.10 mph51%30.15 "HgN/A
5:50 PM54 °FPassing clouds.8 mph51%30.18 "HgN/A
5:20 PM55 °FPassing clouds.9 mph47%30.18 "HgN/A
4:50 PM55 °FPassing clouds.9 mph47%30.18 "HgN/A
4:20 PM55 °FPassing clouds.10 mph47%30.18 "HgN/A
3:50 PM54 °FPassing clouds.12 mph47%30.18 "HgN/A
3:20 PM54 °FPassing clouds.8 mph47%30.18 "HgN/A
2:50 PM52 °FPassing clouds.10 mph50%30.21 "HgN/A
2:20 PM54 °FPassing clouds.8 mph47%30.21 "HgN/A
1:50 PM52 °FPassing clouds.10 mph54%30.21 "HgN/A
1:20 PM50 °FPassing clouds.8 mph62%30.21 "HgN/A
12:50 PM50 °FPassing clouds.8 mph58%30.21 "HgN/A
12:20 PM48 °FPassing clouds.8 mph66%30.21 "HgN/A
11:50 AM48 °FPassing clouds.8 mph66%30.21 "HgN/A
11:20 AM46 °FPassing clouds.6 mph71%30.21 "HgN/A
Weather by CustomWeather, © 2014

See weather overview